Time,TemperatureF,DewpointF,PressureIn,WindDirection,WindDirectionDegrees,WindSpeedMPH,WindSpeedGustMPH,Humidity,HourlyPrecipIn,Conditions,Clouds,dailyrainin,SoftwareType,DateUTC
2013-08-17 00:11:00,60.0,57.1,30.10,East,98,0.0,0.0,90,0.00,,---,0.00,VWS V14.01,2013-08-17 05:11:00,
2013-08-17 00:26:00,59.6,56.7,30.11,East,98,0.0,0.0,90,0.00,,---,0.00,VWS V14.01,2013-08-17 05:26:00,
2013-08-17 00:41:00,59.3,56.7,30.11,East,98,0.0,0.0,91,0.00,,---,0.00,VWS V14.01,2013-08-17 05:41:00,
2013-08-17 00:56:00,58.9,56.3,30.11,East,98,0.0,0.0,91,0.00,,---,0.00,VWS V14.01,2013-08-17 05:56:00,
2013-08-17 01:11:00,59.1,56.8,30.11,East,98,0.0,0.0,92,0.00,,---,0.00,VWS V14.01,2013-08-17 06:11:00,
2013-08-17 01:26:00,59.2,56.6,30.11,East,98,0.0,0.0,91,0.00,,---,0.00,VWS V14.01,2013-08-17 06:26:00,
2013-08-17 01:41:00,58.8,55.9,30.11,East,98,0.0,0.0,90,0.00,,---,0.00,VWS V14.01,2013-08-17 06:41:00,
2013-08-17 01:56:00,58.4,55.5,30.10,East,98,0.0,0.0,90,0.00,,---,0.00,VWS V14.01,2013-08-17 06:56:00,
2013-08-17 02:11:00,58.2,55.6,30.11,East,98,0.0,0.0,91,0.00,,---,0.00,VWS V14.01,2013-08-17 07:11:00,
2013-08-17 02:26:00,58.1,55.5,30.11,East,98,0.0,0.0,91,0.00,,---,0.00,VWS V14.01,2013-08-17 07:26:00,
2013-08-17 02:41:00,58.1,55.5,30.11,East,98,0.0,0.0,91,0.00,,---,0.00,VWS V14.01,2013-08-17 07:41:00,
2013-08-17 02:56:00,58.0,55.1,30.11,East,98,0.0,1.0,90,0.00,,---,0.00,VWS V14.01,2013-08-17 07:56:00,
2013-08-17 03:11:00,57.8,54.9,30.11,East,98,0.0,0.0,90,0.00,,---,0.00,VWS V14.01,2013-08-17 08:11:00,
2013-08-17 03:26:00,57.5,54.6,30.11,East,98,0.0,0.0,90,0.00,,---,0.00,VWS V14.01,2013-08-17 08:26:00,
2013-08-17 03:41:00,57.3,54.7,30.11,East,98,0.0,0.0,91,0.00,,---,0.00,VWS V14.01,2013-08-17 08:41:00,
2013-08-17 03:56:00,56.9,54.3,30.11,East,98,0.0,0.0,91,0.00,,---,0.00,VWS V14.01,2013-08-17 08:56:00,
2013-08-17 04:11:00,56.4,53.8,30.11,East,98,0.0,0.0,91,0.00,,---,0.00,VWS V14.01,2013-08-17 09:11:00,
2013-08-17 04:26:00,56.1,53.8,30.11,East,98,0.0,0.0,92,0.00,,---,0.00,VWS V14.01,2013-08-17 09:26:00,
2013-08-17 04:41:00,56.2,54.2,30.11,East,98,0.0,0.0,93,0.00,,---,0.00,VWS V14.01,2013-08-17 09:41:00,
2013-08-17 04:56:00,56.0,54.0,30.11,East,98,0.0,0.0,93,0.00,,---,0.00,VWS V14.01,2013-08-17 09:56:00,
2013-08-17 05:11:00,55.7,53.7,30.11,East,98,0.0,0.0,93,0.00,,---,0.00,VWS V14.01,2013-08-17 10:11:00,
2013-08-17 05:26:00,55.5,53.8,30.11,East,98,0.0,0.0,94,0.00,,---,0.00,VWS V14.01,2013-08-17 10:26:00,
2013-08-17 05:41:00,55.1,53.1,30.11,East,98,0.0,0.0,93,0.00,,---,0.00,VWS V14.01,2013-08-17 10:41:00,
2013-08-17 05:56:00,54.9,53.2,30.11,East,98,0.0,0.0,94,0.00,,---,0.00,VWS V14.01,2013-08-17 10:56:00,
2013-08-17 06:11:00,54.8,53.1,30.11,East,98,0.0,0.0,94,0.00,,---,0.00,VWS V14.01,2013-08-17 11:11:00,
2013-08-17 06:26:00,54.8,53.1,30.12,East,98,0.0,0.0,94,0.00,,---,0.00,VWS V14.01,2013-08-17 11:26:00,
2013-08-17 06:41:00,55.1,53.4,30.12,East,98,0.0,0.0,94,0.00,,---,0.00,VWS V14.01,2013-08-17 11:41:00,
2013-08-17 06:56:00,55.3,53.3,30.12,East,98,0.0,0.0,93,0.00,,---,0.00,VWS V14.01,2013-08-17 11:56:00,
2013-08-17 07:11:00,55.8,53.5,30.12,East,98,0.0,0.0,92,0.00,,---,0.00,VWS V14.01,2013-08-17 12:11:00,
2013-08-17 07:26:00,57.1,54.5,30.13,East,98,0.0,0.0,91,0.00,,---,0.00,VWS V14.01,2013-08-17 12:26:00,
2013-08-17 07:41:00,58.4,55.5,30.13,East,98,2.0,4.0,90,0.00,,---,0.00,VWS V14.01,2013-08-17 12:41:00,
2013-08-17 07:56:00,59.8,56.6,30.13,East,98,1.0,4.0,89,0.00,,---,0.00,VWS V14.01,2013-08-17 12:56:00,
2013-08-17 08:11:00,61.1,57.2,30.13,East,98,4.0,5.0,87,0.00,,---,0.00,VWS V14.01,2013-08-17 13:11:00,
2013-08-17 08:26:00,62.5,58.3,30.14,East,98,2.0,5.0,86,0.00,,---,0.00,VWS V14.01,2013-08-17 13:26:00,
2013-08-17 08:41:00,64.2,59.3,30.14,East,98,2.0,4.0,84,0.00,,---,0.00,VWS V14.01,2013-08-17 13:41:00,
2013-08-17 08:56:00,65.8,60.2,30.14,East,98,0.0,4.0,82,0.00,,---,0.00,VWS V14.01,2013-08-17 13:56:00,
2013-08-17 09:26:00,69.6,60.2,30.14,East,98,0.0,4.0,72,0.00,,---,0.00,VWS V14.01,2013-08-17 14:26:00,
2013-08-17 09:41:00,70.4,59.8,30.14,ESE,105,4.0,5.0,69,0.00,,---,0.00,VWS V14.01,2013-08-17 14:41:00,
2013-08-17 09:56:00,71.4,61.9,30.14,ESE,105,2.0,5.0,72,0.00,,---,0.00,VWS V14.01,2013-08-17 14:56:00,
2013-08-17 10:11:00,71.9,59.9,30.14,ESE,117,2.0,6.0,66,0.00,,---,0.00,VWS V14.01,2013-08-17 15:11:00,
2013-08-17 10:26:00,71.9,61.2,30.14,SE,142,6.0,7.0,69,0.00,,---,0.00,VWS V14.01,2013-08-17 15:26:00,
2013-08-17 10:41:00,72.5,61.3,30.14,East,99,2.0,6.0,68,0.00,,---,0.00,VWS V14.01,2013-08-17 15:41:00,
2013-08-17 10:56:00,73.9,61.4,30.14,East,86,0.0,5.0,65,0.00,,---,0.00,VWS V14.01,2013-08-17 15:56:00,
2013-08-17 11:11:00,74.3,59.5,30.14,SE,130,5.0,5.0,60,0.00,,---,0.00,VWS V14.01,2013-08-17 16:11:00,
2013-08-17 11:26:00,74.4,60.1,30.13,SE,126,1.0,9.0,61,0.00,,---,0.00,VWS V14.01,2013-08-17 16:26:00,
2013-08-17 11:41:00,75.1,61.2,30.13,SSE,152,5.0,11.0,62,0.00,,---,0.00,VWS V14.01,2013-08-17 16:41:00,
2013-08-17 11:56:00,74.9,60.6,30.12,SE,132,0.0,11.0,61,0.00,,---,0.00,VWS V14.01,2013-08-17 16:56:00,
2013-08-17 12:11:00,75.3,59.0,30.12,ESE,111,0.0,5.0,57,0.00,,---,0.00,VWS V14.01,2013-08-17 17:11:00,
2013-08-17 12:26:00,75.5,60.7,30.12,East,88,2.0,7.0,60,0.00,,---,0.00,VWS V14.01,2013-08-17 17:26:00,
2013-08-17 12:41:00,76.0,58.7,30.12,ESE,118,5.0,12.0,55,0.00,,---,0.00,VWS V14.01,2013-08-17 17:41:00,
2013-08-17 12:56:00,76.0,58.2,30.11,ESE,119,0.0,11.0,54,0.00,,---,0.00,VWS V14.01,2013-08-17 17:56:00,
2013-08-17 13:11:00,76.4,59.6,30.11,SSE,164,8.0,10.0,56,0.00,,---,0.00,VWS V14.01,2013-08-17 18:11:00,
2013-08-17 13:26:00,76.6,59.8,30.11,ENE,76,4.0,10.0,56,0.00,,---,0.00,VWS V14.01,2013-08-17 18:26:00,
2013-08-17 13:41:00,75.9,58.6,30.10,East,99,2.0,9.0,55,0.00,,---,0.00,VWS V14.01,2013-08-17 18:41:00,
2013-08-17 13:56:00,76.1,59.3,30.10,ESE,123,6.0,10.0,56,0.00,,---,0.00,VWS V14.01,2013-08-17 18:56:00,
2013-08-17 14:11:00,75.6,57.8,30.10,ESE,113,4.0,10.0,54,0.00,,---,0.00,VWS V14.01,2013-08-17 19:11:00,
2013-08-17 14:26:00,76.1,59.8,30.09,SSE,148,8.0,12.0,57,0.00,,---,0.00,VWS V14.01,2013-08-17 19:26:00,
2013-08-17 14:41:00,77.3,59.4,30.09,SSE,160,5.0,10.0,54,0.00,,---,0.00,VWS V14.01,2013-08-17 19:41:00,
2013-08-17 14:56:00,77.1,58.1,30.08,East,98,2.0,11.0,52,0.00,,---,0.00,VWS V14.01,2013-08-17 19:56:00,
2013-08-17 15:11:00,76.8,60.9,30.08,ENE,70,5.0,7.0,58,0.00,,---,0.00,VWS V14.01,2013-08-17 20:11:00,
2013-08-17 15:26:00,76.8,59.4,30.08,East,95,0.0,6.0,55,0.00,,---,0.00,VWS V14.01,2013-08-17 20:26:00,
2013-08-17 15:41:00,76.6,59.2,30.07,SE,144,1.0,11.0,55,0.00,,---,0.00,VWS V14.01,2013-08-17 20:41:00,
2013-08-17 15:56:00,77.4,59.0,30.07,SE,126,1.0,9.0,53,0.00,,---,0.00,VWS V14.01,2013-08-17 20:56:00,
2013-08-17 16:11:00,77.7,59.2,30.06,East,96,0.0,7.0,53,0.00,,---,0.00,VWS V14.01,2013-08-17 21:11:00,
2013-08-17 16:26:00,76.5,59.7,30.07,East,89,0.0,8.0,56,0.00,,---,0.00,VWS V14.01,2013-08-17 21:26:00,
2013-08-17 16:41:00,75.9,60.1,30.06,East,96,0.0,4.0,58,0.00,,---,0.00,VWS V14.01,2013-08-17 21:41:00,
2013-08-17 16:56:00,77.3,60.4,30.06,NNE,26,4.0,6.0,56,0.00,,---,0.00,VWS V14.01,2013-08-17 21:56:00,
2013-08-17 17:11:00,77.7,60.3,30.06,NE,36,0.0,6.0,55,0.00,,---,0.00,VWS V14.01,2013-08-17 22:11:00,
2013-08-17 17:26:00,77.7,59.2,30.06,ESE,113,0.0,9.0,53,0.00,,---,0.00,VWS V14.01,2013-08-17 22:26:00,
2013-08-17 17:41:00,77.5,59.0,30.06,SE,137,2.0,7.0,53,0.00,,---,0.00,VWS V14.01,2013-08-17 22:41:00,
2013-08-17 17:56:00,77.7,58.7,30.05,SE,137,0.0,6.0,52,0.00,,---,0.00,VWS V14.01,2013-08-17 22:56:00,
2013-08-17 18:11:00,77.8,59.3,30.05,SE,137,6.0,7.0,53,0.00,,---,0.00,VWS V14.01,2013-08-17 23:11:00,
2013-08-17 18:26:00,76.9,58.5,30.04,SE,124,1.0,7.0,53,0.00,,---,0.00,VWS V14.01,2013-08-17 23:26:00,
2013-08-17 18:41:00,76.5,59.2,30.04,ESE,121,2.0,5.0,55,0.00,,---,0.00,VWS V14.01,2013-08-17 23:41:00,
2013-08-17 18:56:00,76.1,60.3,30.04,ESE,121,0.0,6.0,58,0.00,,---,0.00,VWS V14.01,2013-08-17 23:56:00,
2013-08-17 19:11:00,75.6,59.8,30.04,ESE,121,0.0,4.0,58,0.00,,---,0.00,VWS V14.01,2013-08-18 00:11:00,
2013-08-17 19:26:00,75.1,60.3,30.04,ESE,121,2.0,2.0,60,0.00,,---,0.00,VWS V14.01,2013-08-18 00:26:00,
2013-08-17 19:41:00,74.4,60.1,30.05,ESE,122,0.0,4.0,61,0.00,,---,0.00,VWS V14.01,2013-08-18 00:41:00,
2013-08-17 19:56:00,73.5,61.5,30.04,ESE,121,0.0,0.0,66,0.00,,---,0.00,VWS V14.01,2013-08-18 00:56:00,
2013-08-17 20:11:00,72.3,59.9,30.04,ESE,121,0.0,0.0,65,0.00,,---,0.00,VWS V14.01,2013-08-18 01:11:00,
2013-08-17 20:26:00,71.0,59.5,30.04,ESE,121,0.0,0.0,67,0.00,,---,0.00,VWS V14.01,2013-08-18 01:26:00,
2013-08-17 20:41:00,69.8,59.2,30.04,ESE,121,0.0,0.0,69,0.00,,---,0.00,VWS V14.01,2013-08-18 01:41:00,
2013-08-17 20:56:00,68.5,60.3,30.05,ESE,121,0.0,0.0,75,0.00,,---,0.00,VWS V14.01,2013-08-18 01:56:00,
2013-08-17 21:11:00,67.2,59.4,30.05,ESE,121,0.0,0.0,76,0.00,,---,0.00,VWS V14.01,2013-08-18 02:11:00,
2013-08-17 21:26:00,66.4,59.0,30.05,ESE,121,0.0,0.0,77,0.00,,---,0.00,VWS V14.01,2013-08-18 02:26:00,
2013-08-17 21:41:00,65.8,58.8,30.05,ESE,122,0.0,0.0,78,0.00,,---,0.00,VWS V14.01,2013-08-18 02:41:00,
2013-08-17 21:56:00,65.2,58.5,30.06,ESE,121,0.0,0.0,79,0.00,,---,0.00,VWS V14.01,2013-08-18 02:56:00,
2013-08-17 22:11:00,64.5,58.5,30.06,ESE,121,0.0,0.0,81,0.00,,---,0.00,VWS V14.01,2013-08-18 03:11:00,
2013-08-17 22:26:00,63.8,58.5,30.06,ESE,122,0.0,0.0,83,0.00,,---,0.00,VWS V14.01,2013-08-18 03:26:00,
2013-08-17 22:41:00,63.2,58.0,30.06,ESE,121,0.0,0.0,83,0.00,,---,0.00,VWS V14.01,2013-08-18 03:41:00,
2013-08-17 22:56:00,62.7,58.5,30.07,ESE,121,0.0,0.0,86,0.00,,---,0.00,VWS V14.01,2013-08-18 03:56:00,
2013-08-17 23:11:00,62.3,58.4,30.07,ESE,121,0.0,0.0,87,0.00,,---,0.00,VWS V14.01,2013-08-18 04:11:00,
2013-08-17 23:26:00,62.0,58.4,30.07,ESE,122,0.0,0.0,88,0.00,,---,0.00,VWS V14.01,2013-08-18 04:26:00,
2013-08-17 23:41:00,61.7,58.4,30.06,ESE,121,0.0,0.0,89,0.00,,---,0.00,VWS V14.01,2013-08-18 04:41:00,
2013-08-17 23:56:00,62.0,59.7,30.07,ESE,121,0.0,0.0,92,0.00,,---,0.00,VWS V14.01,2013-08-18 04:56:00,